Location: St. Louis
(38.6270°N, 90.1994°W)
Time: 22:41:17
(UTC-06:00)

Vanguard 1 - Pass Details

Date: 05 December 2021
Orbit: 652 x 3830 km, 34.2° (Epoch: 21 January)

Event Time Altitude Azimuth Distance (km) Brightness Sun altitude
Rises 06:22:25 0° 286° (WNW) 7,707 - -8.1°
Exits shadow 06:26:41 - 281° (WNW) 6,817 13.7 -7.3°
Reaches altitude 10° 06:28:58 10° 278° (W) 6,334 13.6 -6.9°
Maximum altitude 06:43:42 30° 227° (SW) 3,685 12.8 -4.3°
Drops below altitude 10° 06:53:12 10° 170° (S) 4,021 13.8 -2.6°
Sets 06:56:19 0° 159° (SSE) 4,626 14.4 -2.1°
